Location: Beuerbach
(48.1459°N, 10.9174°E)
Time: 23:51:09
(UTC+00:00)

Meteor 1-21 - Pass Details

Date: 05 August 2024
Orbit: 845 x 885 km, 81.2° (Epoch: 09 September)

Event Time Altitude Azimuth Distance (km) Brightness Sun altitude
Rises 23:17:58 0° 359° (N) 3,419 8.8 -25.2°
Reaches altitude 10° 23:21:26 10° 21° (NNE) 2,478 7.5 -25.2°
Maximum altitude 23:24:49 16° 58° (ENE) 2,074 6.6 -25.2°
Drops below altitude 10° 23:28:11 10° 96° (E) 2,472 6.6 -25.2°
Enters shadow 23:29:14 - 104° (ESE) 2,720 6.7 -25.2°
